Location: Unspecified
(45.7810°N, 0.0000°E)
Time: 14:13:00
(UTC+00:00)

ISS - Pass Details

Date: 25 July 2019
Orbit: 410 x 420 km, 51.6° (Epoch: 23 August)

Event Time Altitude Azimuth Distance (km) Brightness Sun altitude
Rises 23:02:37 0° 298° (WNW) 2,370 0.7 -23.1°
Reaches altitude 10° 23:04:44 10° 301° (WNW) 1,502 -0.4 -23.2°
Enters shadow 23:07:07 41° 316° (NW) 616 -2.6 -23.3°
